Weather in Kadnikovo

Russia / Altai Krai     52°51′53″N   81°54′52″E
temp.,
°C
wind,
m/s
gust,
m/s
humid.,
%
clouds,
%
prec.,
mm/h
press.,
hPa
HPBL,
m
8 august, mon
mon801:00+17s225342 0.0 100718
04:00+15n00585 0.0 100711
07:00+16nne11575 0.0 100811
10:00+24e223645 0.0 1008655
13:00+28e322783 0.0 10082941
16:00+29ne3225100 0.0 10072851
19:00+25nnw353299 0.0 1007114
22:00+22nne5115072 0.0 1008308
9 august, tue
tue901:00+18nne486385 0.0 1008133
04:00+16ene49638 0.0 1008147
07:00+16e3664100 0.0 1008124
10:00+24ene3442100 0.0 1008652
13:00+27e3434100 0.0 10081670
16:00+27e443098 0.0 10072122
19:00+19wnw587298 0.2 1008182
22:00+17nnw4107582 0.0 1008185
10 august, wed
wed1001:00+16n5118224 0.0 1008218
04:00+15ne47855 0.0 1007102
07:00+16ne36755 0.0 1007100
10:00+25ne56450 0.0 1007636
13:00+30ne542888 0.0 10062132
16:00+31ene4323100 0.0 10053084
19:00+30ene5424100 0.0 10042546
22:00+23ene6144798 0.1 1006444
11 august, thu
thu1101:00+18ene3980100 0.6 1006164
04:00+17nne3491100 3.0 1006102
07:00+17ese1394100 4.1 1007112
10:00+17ne1294100 2.9 1009182
13:00+18ne3587100 6.2 1009265
16:00+20nne337079 2.9 1009398
19:00+22nne2259100 2.9 1009665
22:00+18n2275100 0.1 101018
12 august, fri
fri1201:00+16nne348198 0.3 101054
04:00+15n22915 0.0 101023
07:00+15nne359823 0.0 1011129
10:00+20nne45725 0.0 1012585
13:00+25ne34505 0.0 10111355
16:00+28nne433947 0.0 10102222
19:00+26n454695 0.0 1010595
22:00+22n4853100 0.0 1010193